Main page
METAR-TAF:

METAR-TAF

Airports :

Qazvin, Iran

Qazvin Airport

latitude: 36-15N, longitude: 050-00E, elevation: 1278 m

Current weather observation

The report was made 15 minutes ago, at 23:00 UTC
Wind 6 kt from the North/Northeast
Temperature 24°C
Humidity 24%
Pressure 1014 hPa
Visibility 10 km or more
no clouds below 1500 m and no cumulonimbus

METAR: OIIK 232300Z 02006KT CAVOK 24/02 Q1014

Time: 03:45 (23:15 UTC)


TAF: missing

Weather observations and forecasts of more than 4000 airports (METAR and TAF reports).

The available stations are represented by yellow and red dots on the map.

Hover mouse over dot to see the name of the station.

Then click to see weather observations and forecasts.

To change the map : click on the green buttons with a black cross to zoom in, on the green button with a dash to zoom out, or on the green arrows for adjacent maps.


METAR-TAF: